Location: Burghclere
(51.3167°N, 1.3167°W)
Time: 07:42:10
(UTC+00:00)

Daily predictions for brighter satellites

Satellite Brightness Start Highest point End
(mag) Time Altitude Azimuth Time Altitude Azimuth Time Altitude Azimuth
ERS-1 Rocket 3.2 21:04:38 10° SSE 21:09:35 61° ENE 21:14:34 10° N
Lacrosse 4 Rocket 3.9 21:09:01 10° WSW 21:12:36 28° NW 21:16:08 10° NNE
CZ-2C R/B 4.4 21:11:54 10° NNE 21:16:11 36° E 21:20:20 10° SSE
Cosmos 2056 Rocket 3.6 21:11:58 10° SSW 21:17:21 79° ESE 21:22:48 10° NNE
Cosmos 1025 Rocket 3.1 21:13:35 10° SSW 21:17:52 82° W 21:22:12 10° N
Cosmos 1455 Rocket 3.9 21:14:05 10° NNW 21:18:18 49° W 21:22:28 10° SSW
Cosmos 2315 Rocket 4.2 21:14:09 10° S 21:20:30 86° W 21:26:51 10° N
ARIANE 5 R/B 3.2 21:18:31 10° SE 21:22:48 47° ENE 21:27:04 10° N
Cosmos 676 Rocket 4.3 21:18:16 10° NNW 21:23:36 68° WSW 21:28:49 10° SSE
Cosmos 1420 Rocket 4.0 21:19:58 10° SSW 21:25:12 75° ESE 21:30:31 10° NNE
Cosmos 2344 4.5 21:17:10 10° NW 21:25:26 64° NE 21:36:41 10° ESE
SL-8 R/B 3.8 21:22:11 10° W 21:26:56 62° S 21:31:42 10° ESE
Cosmos 1455 2.4 21:27:05 10° NNW 21:30:52 70° W 21:34:39 10° S
Cosmos 2074 Rocket 4.1 21:27:23 10° N 21:33:42 71° ENE 21:39:56 10° SSE
USA 245 4.2 21:29:48 10° S 21:34:17 49° WSW 21:37:55 10° NNW
Meteor 2-5 Rocket 4.2 21:34:31 10° SSW 21:39:59 61° WNW 21:45:31 10° N
USA 32 4.2 21:34:51 10° S 21:40:04 77° W 21:45:20 10° N
Cosmos 1607 4.0 21:36:30 10° SW 21:42:44 90° SSE 21:48:59 10° NE
USA 267 3.7 21:39:10 10° ENE 21:45:14 39° SE 21:51:16 10° SSW
NOSS 2-1 (C) 4.5 21:41:30 10° NW 21:45:49 50° SW 21:51:28 11° SSE
Cosmos 1536 Rocket 3.5 21:43:57 10° S 21:48:15 73° E 21:52:36 10° NNE
Cosmos 2228 3.1 21:44:08 10° N 21:48:21 63° ENE 21:52:05 13° SSE
H-2A R/B 4.5 21:45:01 10° N 21:48:38 26° WNW 21:52:16 10° WSW
Tiangong 3.3 21:48:47 10° SW 21:49:54 11° SSW 21:50:37 11° S
Cosmos 1850 Rocket 4.0 21:45:25 10° NNW 21:50:40 86° ENE 21:55:21 13° SSE
Cosmos 1980 Rocket 3.2 21:45:31 10° NNW 21:50:52 39° NE 21:56:10 10° ESE
SPOT 5 3.2 21:46:57 10° S 21:51:17 52° W 21:55:33 10° NNW
Nadezhda 1 Rocket 4.2 21:47:12 10° SSE 21:53:03 51° E 21:58:55 10° NNE
Cosmos 1606 Rocket 4.0 21:49:11 10° N 21:53:23 48° ENE 21:56:56 14° SSE
Cosmos 1697 Rocket 2.9 21:48:01 10° NNW 21:53:39 65° NE 21:58:44 13° SE
Cosmos 1703 3.3 21:51:24 10° S 21:55:12 64° E 21:59:03 10° NNE
Cosmos 2084 Rocket 4.2 21:54:48 10° NW 21:58:29 41° NE 22:02:17 10° ESE
Cosmos 2154 Rocket 4.0 21:52:16 10° N 21:58:32 77° ENE 22:04:14 13° SSE
Cosmos 2084 3.4 21:56:02 10° SW 21:59:52 72° NW 22:03:46 10° NE
Cosmos 1656 3.9 21:57:43 10° NW 22:03:06 61° WSW 22:07:55 13° S
USA 276 2.3 22:00:19 10° SW 22:03:11 41° SSE 22:06:03 10° E
Cosmos 1328 4.5 22:04:04 15° SSE 22:06:59 39° E 22:10:45 10° NNE
Cosmos 1331 Rocket 4.4 22:04:06 11° S 22:08:56 45° ESE 22:13:59 10° NE
X-37B 1.6 22:10:11 10° SW 22:12:28 22° S 22:12:57 21° SSE
Meteor 1-21 Rocket 4.2 22:10:01 11° S 22:15:24 70° E 22:21:03 10° NNE
Lacrosse 5 3.1 22:12:18 10° WNW 22:16:40 29° SW 22:20:08 14° S
Cosmos 1408 3.9 22:15:25 16° SE 22:17:05 23° E 22:19:52 10° NE
Cosmos 1726 Rocket 3.6 22:13:54 10° N 22:18:13 65° ENE 22:21:23 18° SSE
SAR-Lupe-4 3.9 22:15:06 10° NNE 22:18:35 48° E 22:20:59 18° S
Cosmos 1452 Rocket 3.5 22:13:38 10° SSW 22:18:54 86° ESE 22:24:12 10° NNE
ATLAS 2AS CENTAUR R/B 3.7 22:13:39 10° NW 22:19:53 34° WSW 22:25:25 11° S
FALCON 9 DEB 3.5 22:16:56 10° W 22:20:11 62° N 22:23:27 10° E
USA 234 3.3 22:14:48 10° ESE 22:21:23 85° SSW 22:28:00 10° WNW
Terra 2.8 22:16:59 10° S 22:21:29 42° W 22:26:02 10° NNW
Cosmos 2322 Rocket 4.3 22:18:00 10° NNW 22:22:13 21° NE 22:26:26 10° E
Cosmos 1833 Rocket 2.8 22:18:02 10° S 22:23:32 58° ESE 22:29:03 10° NE
Cosmos 1867 4.2 22:20:33 10° NW 22:25:57 54° NE 22:31:17 10° ESE
SL-8 Rocket 4.4 22:22:49 10° N 22:28:58 55° ENE 22:33:46 17° SSE
Cosmos 1110 Rocket 4.0 22:25:50 10° SSW 22:31:04 73° ESE 22:36:23 10° NNE
Cosmos 2360 4.3 22:26:03 10° NNW 22:31:47 74° WSW 22:36:09 18° SSE
Cosmos 1900 4.4 22:27:32 10° NW 22:32:44 80° SW 22:36:32 18° SSE
SAR-Lupe-1 4.0 22:31:10 10° NNE 22:34:47 84° ESE 22:37:27 17° SSW
ALOS 2 3.8 22:32:45 14° SE 22:35:59 33° ENE 22:39:56 10° N
Cosmos 2218 Rocket 4.4 22:34:43 10° N 22:41:03 57° ENE 22:45:53 18° SSE
Cosmos 2366 rocket 4.3 22:38:34 10° N 22:44:50 60° ENE 22:49:34 18° SSE
RESURS DK-1 3.4 22:42:42 10° NW 22:46:28 34° WSW 22:48:58 18° SSW
Cosmos 2082 Rocket 2.8 22:42:49 18° SSE 22:46:29 39° ESE 22:51:46 10° NE
Cosmos 2341 Rocket 4.0 22:42:59 10° N 22:49:22 86° ENE 22:54:07 19° S
Cosmos 2058 Rocket 3.0 22:47:49 10° N 22:52:15 85° E 22:55:04 22° SSE
Spot 4 3.9 22:52:43 21° SSE 22:55:55 77° ENE 23:00:44 10° NNW
Cosmos 1892 Rocket 3.5 22:53:33 19° S 22:56:43 89° E 23:01:08 10° N
ARIANE 5 R/B 4.4 22:55:50 10° SSW 22:59:28 24° W 23:03:06 10° NW
Cosmos 1825 3.0 22:58:50 23° SE 23:00:29 35° E 23:03:56 10° NNE
Cosmos 2360 Rocket 4.2 22:57:21 10° NNW 23:01:56 24° NE 23:06:31 10° E
Cosmos 968 Rocket 3.5 22:58:46 10° NNW 23:03:58 75° WSW 23:07:22 22° SSE
Cosmos 192 4.3 23:00:40 18° SSW 23:04:16 71° ESE 23:09:10 10° NNE
ERS-2 3.9 23:02:13 10° NE 23:04:45 18° E 23:05:53 16° ESE
Cosmos-2242 4.3 23:01:47 10° N 23:05:32 29° ENE 23:08:16 16° ESE
GP-B 3.3 23:03:51 10° N 23:08:16 66° W 23:11:19 20° SSW
SL-8 R/B 4.3 23:04:40 10° W 23:09:05 36° SSW 23:11:22 23° SSE
Cosmos 1959 Rocket 4.5 23:03:15 10° N 23:09:24 83° E 23:13:40 21° SSE
Cosmos 1626 Rocket 4.0 23:10:22 24° SSE 23:12:37 47° E 23:16:48 10° NNE
Cosmos 1869 3.3 23:11:16 10° N 23:15:08 72° ENE 23:17:08 27° SSE
Cosmos 1606 4.4 23:12:43 10° NNE 23:15:56 25° ENE 23:18:18 15° ESE
BREEZE-M DEB (TANK) 3.4 23:13:11 10° W 23:16:12 71° S 23:26:58 10° E
Meteor 1-27 4.2 23:11:22 10° NNW 23:16:59 87° ENE 23:20:39 22° SSE
ASTEX 1 4.0 23:13:19 10° N 23:18:12 52° WNW 23:22:15 14° SSW
Cosmos 864 Rocket 4.5 23:13:10 10° N 23:19:21 85° W 23:23:39 21° S
Cosmos 2181 Rocket 4.0 23:20:12 20° S 23:24:39 86° E 23:30:55 10° N
COSMOS 2406 3.3 23:19:53 12° SSW 23:25:14 86° WNW 23:31:03 10° NNE
ADEOS Rocket 3.5 23:20:28 20° SSE 23:25:50 86° ENE 23:33:35 10° NNW
Cosmos 1633 3.5 23:25:15 25° SE 23:26:29 33° E 23:29:39 10° NNE
Cosmos 2369 4.2 23:21:04 10° NW 23:26:35 50° WSW 23:30:04 22° S
SL-16 R/B 2.8 23:22:34 10° NNW 23:28:09 54° NE 23:33:07 13° SE
USA 267 3.3 23:22:07 10° ENE 23:28:42 88° NNW 23:35:16 10° WSW
Okean 1-7 Rocket 3.5 23:27:28 25° S 23:30:01 81° E 23:34:32 10° NNE
Cosmos 1892 3.1 23:30:47 22° SSW 23:33:01 56° WNW 23:36:45 10° N
Cosmos 1980 Rocket 2.7 23:29:33 10° NW 23:35:02 48° WSW 23:38:22 22° S
SJ 16-02 2.5 23:31:37 10° N 23:35:48 38° ENE 23:39:13 14° SE
Cosmos 1486 Rocket 4.0 23:31:04 10° NNW 23:36:19 85° WSW 23:39:34 24° SSE
Cosmos 1697 Rocket 4.1 23:32:39 10° NW 23:37:11 26° WSW 23:40:27 15° SSW
Cosmos 2084 Rocket 4.1 23:34:16 10° WNW 23:37:51 34° SW 23:39:10 27° SSW
USA 276 1.8 23:35:42 10° W 23:38:42 69° S 23:41:42 10° E
Cosmos 1821 Rocket 4.1 23:35:22 10° N 23:41:41 76° ENE 23:45:54 22° SSE
Cosmos 2219 Rocket 4.4 23:37:50 10° NNW 23:42:17 23° NE 23:46:45 10° E
Cosmos 1992 Rocket 4.0 23:48:18 24° SSW 23:51:32 73° ESE 23:56:47 10° NNE
Cosmos 1408 4.1 23:49:23 14° SW 23:51:40 27° WNW 23:54:41 10° N
In-Cosmos 22 Rocket 4.4 23:48:12 19° SSW 23:52:18 66° WNW 23:57:47 10° N
FALCON 9 DEB 2.8 23:53:17 10° WNW 23:56:34 82° SSW 23:59:14 15° ESE
